Hourly Data Report for October 01, 2017

All times are specified in Local Standard Time (LST). Add 1 hour to adjust for Daylight Saving Time where and when it is observed.

CARIBOU POINT (AUT)
NOVA SCOTIA

45°46'00.000" N
62°41'00.000" W
2.40 m
8200774
71415
WBK

Download Data

Hourly Data (October 2017)
Hourly Data Report for October 1, 2017
Temp Definition
°C
Dew Point Temp Definition
°C
Rel Hum Definition
%
Wind Dir Definition
10's deg

Wind Spd Definition
km/h
Visibility Definition
km
Stn Press Definition
kPa
Hmdx Definition


Wind Chill Definition


Weather Definition


TIME
00:00 6.9 4.3 83 22 11   102.35     LegendNANA
01:00 6.3 4.4 88 23 11   102.35     LegendNANA
02:00 5.9 4.0 88 22 14   102.33     LegendNANA
03:00 5.3 3.6 89 22 11   102.32     LegendNANA
04:00 5.3 3.5 88 21 13   102.29     LegendNANA
05:00 5.3 3.7 89 22 13   102.25     LegendNANA
06:00 5.3 3.6 89 21 12   102.22     LegendNANA
07:00 6.1 4.2 87 22 14   102.22     LegendNANA
08:00 9.0 5.0 77 24 11   102.23     LegendNANA
09:00 11.4 4.3 62 25 13   102.20     LegendNANA
10:00 13.2 4.1 54 25 12   102.14     LegendNANA
11:00 15.0 5.1 52 26 12   102.10     LegendNANA
12:00 15.9 4.9 48 23 10   101.98     LegendNANA
13:00 16.3 6.1 51 23 14   101.91     LegendNANA
14:00 16.4 4.6 45 25 15   101.81     LegendNANA
15:00 16.9 3.5 41 24 15   101.75     LegendNANA
16:00 16.5 2.1 38 25 16   101.71     LegendNANA
17:00 15.3 1.0 38 25 13   101.75     LegendNANA
18:00 13.2 2.6 49 25 14   101.78     LegendNANA
19:00 11.8 3.6 57 25 10   101.82     LegendNANA
20:00 10.9 3.7 61 26 12   101.85     LegendNANA
21:00 10.7 4.5 65 26 15   101.87     LegendNANA
22:00 10.4 5.0 69 26 16   101.87     LegendNANA
23:00 10.9 6.4 74 27 20   101.85     LegendNANA

Notes on Data Quality.

Legend

  • E = Estimated
  • M = Missing
  • NA = Not Available
  • ‡ = Partner data that is not subject to review by the National Climate Archives
Date modified: